North Bend, OR

11:58 PM PDT on August 22, 2017 (GMT -0700)
North Bend Municipal

Weather History for KOTH - October, 2010

Change the Weather History Date:

Sunday, October 3, 2010

  Actual Average Record
Temperature  
Mean Temperature 57 °F 55 °F  
Max Temperature 64 °F 63 °F 83 °F (1966)
Min Temperature 50 °F 47 °F 34 °F (1919)
Degree Days  
Heating Degree Days 8 10  
Month to date heating degree days 19 30  
Since 1 July heating degree days 692 638  
Cooling Degree Days 0 0  
Month to date cooling degree days 0 0  
Year to date cooling degree days 3 2  
Growing Degree Days 8 (Base 50)    
Moisture  
Dew Point 53 °F    
Average Humidity 81    
Maximum Humidity 96    
Minimum Humidity 72    
Precipitation  
Precipitation 0.00 in 0.08 in 0.91 in (1950)
Month to date precipitation 0.00 0.25  
Year to date precipitation 43.09 39.07  
Sea Level Pressure  
Sea Level Pressure 30.05 in    
Wind  
Wind Speed 6 mph (NNW)    
Max Wind Speed 14 mph    
Max Gust Speed 18 mph    
Visibility 8 miles    
Events      
T = Trace of Precipitation, MM = Missing Value Source: NWS Daily Summary

Daily Weather History Graph

Daily Weather History Graph

Search for Another Location

Airport or City:

Trip Planner

Search our weather history database for the weather conditions in past years. The results will help you decide how hot, cold, wet, or windy it might be!

Date:

Astronomy

Oct. 03, 2010 Rise Set
Actual Time 7:16 AM PDT 6:54 PM PDT
Civil Twilight 6:48 AM PDT 7:22 PM PDT
Nautical Twilight 6:15 AM PDT 7:55 PM PDT
Astronomical Twilight 5:41 AM PDT 8:29 PM PDT
Moon 2:10 AM PDT (10/3) 4:29 PM PDT (10/3)
Length of Visible Light 12h 34m
Length of Day
11h 37m
Waning Crescent, 22% of the Moon is Illuminated
Oct 3
Waning Crescent
Oct 7
New
Oct 14
First Quarter
Oct 22
Full
Oct 30
Last Quarter

Hourly Weather History & Observations

Time (PDT) Temp. Dew Point Humidity Pressure Visibility Wind Dir Wind Speed Gust Speed Precip Events Conditions
12:15 AM 57.2 °F 51.8 °F 82% 30.03 in 10.0 mi North 9.2 mph - N/A   Overcast
12:35 AM 57.2 °F 51.8 °F 82% 30.03 in 10.0 mi North 10.4 mph - N/A   Overcast
12:55 AM 57.2 °F 53.6 °F 88% 30.03 in 10.0 mi North 10.4 mph - N/A   Overcast
1:15 AM 57.2 °F 51.8 °F 82% 30.03 in 10.0 mi North 9.2 mph - N/A   Overcast
1:35 AM 57.2 °F 51.8 °F 82% 30.03 in 10.0 mi NNE 8.1 mph - N/A   Overcast
1:55 AM 57.2 °F 51.8 °F 82% 30.04 in 10.0 mi North 6.9 mph - N/A   Overcast
2:15 AM 57.2 °F 51.8 °F 82% 30.04 in 10.0 mi North 6.9 mph - N/A   Overcast
2:35 AM 57.2 °F 51.8 °F 82% 30.04 in 10.0 mi North 8.1 mph - N/A   Overcast
2:55 AM 57.2 °F 51.8 °F 82% 30.04 in 10.0 mi North 8.1 mph - N/A   Overcast
3:15 AM 57.2 °F 51.8 °F 82% 30.04 in 10.0 mi NNE 8.1 mph - N/A   Overcast
3:35 AM 57.2 °F 51.8 °F 82% 30.04 in 10.0 mi NNE 5.8 mph - N/A   Overcast
3:55 AM 57.2 °F 51.8 °F 82% 30.03 in 10.0 mi NNE 3.5 mph - N/A   Overcast
4:15 AM 57.2 °F 51.8 °F 82% 30.03 in 10.0 mi North 5.8 mph - N/A   Overcast
4:35 AM 57.2 °F 51.8 °F 82% 30.03 in 10.0 mi North 4.6 mph - N/A   Overcast
4:55 AM 57.2 °F 51.8 °F 82% 30.03 in 10.0 mi NNW 3.5 mph - N/A   Overcast
5:15 AM 55.4 °F 51.8 °F 88% 30.03 in 3.0 mi NW 4.6 mph - N/A   Overcast
5:35 AM 55.4 °F 51.8 °F 88% 30.04 in 4.0 mi WNW 4.6 mph - N/A   Overcast
5:55 AM 55.4 °F 51.8 °F 88% 30.04 in 4.0 mi NNW 4.6 mph - N/A   Overcast
6:15 AM 55.4 °F 51.8 °F 88% 30.04 in 5.0 mi Calm Calm - N/A   Overcast
6:35 AM 55.4 °F 51.8 °F 88% 30.04 in 4.0 mi Calm Calm - N/A   Overcast
6:55 AM 55.4 °F 51.8 °F 88% 30.04 in 5.0 mi Calm Calm - N/A   Overcast
7:15 AM 55.4 °F 51.8 °F 88% 30.04 in 5.0 mi Calm Calm - N/A   Overcast
7:35 AM 55.4 °F 51.8 °F 88% 30.04 in 4.0 mi Calm Calm - N/A   Overcast
7:55 AM 55.4 °F 51.8 °F 88% 30.04 in 4.0 mi Calm Calm - N/A   Overcast
8:15 AM 55.4 °F 51.8 °F 88% 30.04 in 5.0 mi Calm Calm - N/A   Overcast
8:35 AM 57.2 °F 53.6 °F 88% 30.05 in 2.0 mi West 3.5 mph - N/A   Overcast
8:55 AM 55.4 °F 53.6 °F 94% 30.05 in 1.0 mi Calm Calm - N/A   Overcast
9:15 AM 57.2 °F 53.6 °F 88% 30.05 in 2.0 mi WNW 3.5 mph - N/A   Overcast
9:35 AM 59.0 °F 53.6 °F 82% 30.05 in 1.5 mi Calm Calm - N/A   Overcast
9:55 AM 59.0 °F 53.6 °F 82% 30.06 in 3.0 mi NNW 3.5 mph - N/A   Overcast
10:15 AM 59.0 °F 53.6 °F 82% 30.06 in 3.0 mi WNW 9.2 mph - N/A   Overcast
10:35 AM 59.0 °F 51.8 °F 77% 30.06 in 10.0 mi NW 6.9 mph - N/A   Overcast
10:55 AM 60.8 °F 53.6 °F 77% 30.07 in 10.0 mi WNW 9.2 mph - N/A   Overcast
11:15 AM 60.8 °F 53.6 °F 77% 30.07 in 10.0 mi WNW 6.9 mph - N/A   Overcast
11:35 AM 60.8 °F 53.6 °F 77% 30.07 in 10.0 mi NW 8.1 mph - N/A   Overcast
11:55 AM 60.8 °F 53.6 °F 77% 30.06 in 10.0 mi NNW 9.2 mph - N/A   Overcast
12:15 PM 60.8 °F 53.6 °F 77% 30.06 in 10.0 mi NNW 8.1 mph - N/A   Overcast
12:35 PM 60.8 °F 53.6 °F 77% 30.06 in 10.0 mi NNE 6.9 mph - N/A   Overcast
12:55 PM 62.6 °F 53.6 °F 72% 30.06 in 10.0 mi NNW 13.8 mph - N/A   Overcast
1:15 PM 62.6 °F 53.6 °F 72% 30.06 in 10.0 mi NNW 11.5 mph - N/A   Overcast
1:35 PM 62.6 °F 53.6 °F 72% 30.06 in 10.0 mi NW 9.2 mph - N/A   Scattered Clouds
1:55 PM 62.6 °F 53.6 °F 72% 30.05 in 10.0 mi NW 9.2 mph - N/A   Mostly Cloudy
2:15 PM 62.6 °F 53.6 °F 72% 30.05 in 10.0 mi NNW 11.5 mph - N/A   Mostly Cloudy
2:35 PM 62.6 °F 51.8 °F 68% 30.05 in 10.0 mi NNW 12.7 mph 17.3 mph N/A   Mostly Cloudy
2:55 PM 60.8 °F 53.6 °F 77% 30.05 in 10.0 mi NNW 11.5 mph - N/A   Overcast
3:15 PM 60.8 °F 53.6 °F 77% 30.05 in 10.0 mi NNW 12.7 mph - N/A   Overcast
3:35 PM 60.8 °F 53.6 °F 77% 30.06 in 10.0 mi NNW 12.7 mph - N/A   Overcast
3:55 PM 60.8 °F 53.6 °F 77% 30.06 in 10.0 mi NNW 13.8 mph - N/A   Overcast
4:15 PM 60.8 °F 53.6 °F 77% 30.05 in 10.0 mi NNW 13.8 mph - N/A   Overcast
4:35 PM 60.8 °F 53.6 °F 77% 30.06 in 10.0 mi North 12.7 mph 18.4 mph N/A   Mostly Cloudy
4:55 PM 60.8 °F 53.6 °F 77% 30.06 in 10.0 mi NNW 13.8 mph - N/A   Mostly Cloudy
5:15 PM 60.8 °F 51.8 °F 72% 30.06 in 10.0 mi North 13.8 mph - N/A   Partly Cloudy
5:35 PM 60.8 °F 51.8 °F 72% 30.06 in 10.0 mi North 12.7 mph - N/A   Clear
5:55 PM 59.0 °F 51.8 °F 77% 30.06 in 10.0 mi North 11.5 mph - N/A   Clear
6:15 PM 57.2 °F 51.8 °F 82% 30.07 in 10.0 mi North 10.4 mph - N/A   Clear
6:35 PM 57.2 °F 50.0 °F 77% 30.07 in 10.0 mi NNE 11.5 mph - N/A   Clear
6:55 PM 57.2 °F 50.0 °F 77% 30.07 in 10.0 mi North 6.9 mph - N/A   Clear
7:15 PM 57.2 °F 51.8 °F 82% 30.07 in 10.0 mi North 6.9 mph - N/A   Clear
7:35 PM 55.4 °F 51.8 °F 88% 30.08 in 10.0 mi NNW 4.6 mph - N/A   Clear
7:55 PM 55.4 °F 51.8 °F 88% 30.08 in 10.0 mi North 5.8 mph - N/A   Clear
8:15 PM 55.4 °F 51.8 °F 88% 30.08 in 10.0 mi North - - N/A   Clear
8:35 PM 55.4 °F 51.8 °F 88% 30.09 in 10.0 mi North 3.5 mph - N/A   Clear
8:55 PM 55.4 °F 51.8 °F 88% 30.09 in 10.0 mi Calm Calm - N/A   Clear
9:15 PM 53.6 °F 51.8 °F 94% 30.10 in 10.0 mi Calm Calm - N/A   Clear
9:35 PM 55.4 °F 51.8 °F 88% 30.10 in 10.0 mi Calm Calm - N/A   Mostly Cloudy
9:55 PM 53.6 °F 51.8 °F 94% 30.10 in 1.8 mi Calm Calm - N/A   Overcast
10:15 PM 53.6 °F 51.8 °F 94% 30.10 in 2.0 mi Calm Calm - N/A   Overcast
10:35 PM 53.6 °F 51.8 °F 94% 30.11 in 5.0 mi Calm Calm - N/A   Overcast
10:55 PM 53.6 °F 51.8 °F 94% 30.11 in 5.0 mi WNW 3.5 mph - N/A   Overcast
11:15 PM 53.6 °F 51.8 °F 94% 30.11 in 10.0 mi Calm Calm - N/A   Mostly Cloudy
11:35 PM 51.8 °F 51.8 °F 100% 30.12 in 10.0 mi Calm Calm - N/A   Partly Cloudy
11:55 PM 51.8 °F 50.0 °F 94% 30.12 in 9.0 mi Calm Calm - N/A   Scattered Clouds